www.pogodaiklimat.ru

Погода и климат >> Архив погоды >> Бразилия >> Гояс >> Пирис-ду-Риу


ПОГОДА в Пирис-ду-Риу

  • Прогноз погоды в Пирис-ду-Риу
  • Монитор погоды в Пирис-ду-Риу

АРХИВ ПОГОДЫ в Пирис-ду-Риу

Время (UTC), дата Ветер
(напр.,м/с)
 
Видим.   Явления Облачность Т
(С)
Тd
(С)
f
(%)
Тe
(С)
Тes
(С)
Комфортность P
(гПа)
Po
(гПа)
Тmin
(С)
Tmax
(С)
R
(мм)
R24
(мм)
S
(см)
10 16.07 штиль 0 н/о н/о +12.0 +9.4 84 +11 +11 1020.8 932.2
11 16.07 штиль 0 н/о н/о +15.9 +9.9 68 +16 +16 1019.9 932.5
12 16.07 штиль 0 н/о н/о +21.1 +9.8 48 +22 +22 комфорт 1018.6 932.8
13 16.07 штиль 0
{1}
н/о н/о +23.5 +11.5 47 +25 +25 комфорт 1018.0 932.9
14 16.07 штиль 0 н/о н/о +26.0 +9.2 35 +26 +26 жарко 1016.9 932.6
15 16.07 Ю 1
{3}
н/о н/о +28.1 +8.6 29 +28 +28 жарко 1015.7 932.1
16 16.07 ЮЗ 1
{4}
н/о н/о +28.6 +8.4 28 +28 +28 жарко 1014.9 931.5
17 16.07 ЮЗ 1
{4}
н/о н/о +28.6 +8.3 28 +28 +28 жарко 1013.8 930.5
18 16.07 штиль 0
{3}
н/о н/о +29.4 +8.8 28 +29 +29 жарко 1013.1 930.0
19 16.07 Ю 1
{3}
н/о н/о +29.8 +9.1 28 +29 +29 жарко 1013.1 930.1
20 16.07 Ю 1
{3}
н/о н/о +28.0 +9.7 32 +28 +28 жарко 1013.9 930.4
21 16.07 штиль 0
{2}
н/о н/о +25.4 +11.1 41 +27 +27 жарко 1015.2 930.9
22 16.07 штиль 0 н/о н/о +23.6 +11.6 47 +25 +25 комфорт 1016.2 931.3
23 16.07 штиль 0 н/о н/о +22.3 +11.9 52 +25 +25 комфорт 1017.3 932.0
00 17.07 штиль 0 н/о н/о +20.0 +12.5 62 +22 +22 комфорт 1018.7 932.6
01 17.07 штиль 0 н/о н/о +18.4 +12.7 69 +19 +19 1019.6 933.0
02 17.07 штиль 0 н/о н/о +17.5 +12.6 73 +18 +18 1020.0 933.1
03 17.07 штиль 0 н/о н/о +17.2 +12.6 74 +17 +17 1020.0 933.0
04 17.07 штиль 0 н/о н/о +16.9 +12.2 74 +17 +17 1020.1 933.0
05 17.07 штиль 0 н/о н/о +16.3 +12.3 77 +16 +16 1019.9 932.7
06 17.07 штиль 0 н/о н/о +15.6 +12.4 81 +15 +15 1019.8 932.4
07 17.07 штиль 0 н/о н/о +15.6 +12.4 81 +15 +15 1019.8 932.4
08 17.07 штиль 0 н/о н/о +14.6 +11.8 83 +14 +14 1020.4 932.6
09 17.07 штиль 0 н/о н/о +13.9 +11.7 87 +13 +13 1021.1 933.1
10 17.07 штиль 0 н/о н/о +14.0 +11.3 84 +14 +14 1022.0 933.9
11 17.07 штиль 0 н/о н/о +17.2 +12.7 75 +17 +17 1022.1 934.9
12 17.07 штиль 0
{1}
н/о н/о +19.7 +13.1 66 +21 +21 комфорт 1022.2 935.7
13 17.07 В 1
{2}
н/о н/о +22.4 +13.1 56 +25 +25 комфорт 1021.6 935.9
14 17.07 штиль 0
{2}
н/о н/о +24.2 +13.2 50 +26 +26 жарко 1020.6 935.5
15 17.07 штиль 0 н/о н/о +25.8 +12.8 44 +28 +28 жарко 1019.2 934.7
16 17.07 штиль 0 н/о н/о +27.1 +11.8 39 +28 +28 жарко 1017.8 933.7
17 17.07 ЮЗ 1
{2}
н/о н/о +27.7 +10.9 35 +28 +28 жарко 1016.6 932.8
18 17.07 ЮЗ 1
{3}
н/о н/о +28.9 +10.5 32 +29 +29 жарко 1015.9 932.5
19 17.07 ЮЗ 1
{3}
н/о н/о +28.6 +10.4 32 +29 +29 жарко 1015.8 932.3
21 17.07 штиль 0 н/о н/о +24.7 +11.1 42 +26 +26 жарко 1017.5 932.8
22 17.07 штиль 0 н/о н/о +23.2 +11.0 46 +25 +25 комфорт 1018.3 933.1
23 17.07 штиль 0 н/о н/о +21.6 +11.1 51 +23 +23 комфорт 1019.4 933.7
00 18.07 штиль 0 н/о н/о +19.2 +12.1 63 +20 +20 1020.6 934.1
01 18.07 штиль 0 н/о н/о +17.0 +12.3 74 +17 +17 1021.7 934.5
02 18.07 штиль 0 н/о н/о +16.9 +12.2 74 +17 +17 1021.8 934.6
03 18.07 штиль 0 н/о н/о +14.4 +10.9 79 +14 +14 1022.6 934.6
04 18.07 штиль 0 н/о н/о +14.5 +11.4 82 +14 +14 1022.2 934.2
06 18.07 штиль 0 н/о н/о +13.7 +11.1 84 +13 +13 1021.9 933.7
07 18.07 штиль 0 н/о н/о +13.3 +10.0 80 +13 +13 1022.1 933.8
08 18.07 штиль 0 н/о н/о +12.7 +10.8 88 +12 +12 1022.3 933.8
09 18.07 штиль 0 н/о н/о +12.3 +10.2 87 +12 +12 1023.0 934.3
10 18.07 штиль 0 н/о н/о +12.0 +9.7 86 +11 +11 1023.8 935.0
11 18.07 штиль 0 н/о н/о +17.5 +12.6 73 +18 +18 1023.0 935.8
12 18.07 В 1
{3}
н/о н/о +19.3 +13.3 68 +22 +22 комфорт 1023.4 936.7
13 18.07 В 2
{6}
н/о н/о +22.0 +12.8 56 +25 +25 комфорт 1022.4 936.6
14 18.07 СВ 2
{6}
н/о н/о +23.8 +13.0 51 +26 +26 жарко 1021.7 936.4
15 18.07 В 2
{5}
н/о н/о +25.3 +13.1 47 +27 +27 жарко 1020.4 935.6
16 18.07 В 2
{5}
н/о н/о +26.1 +12.6 43 +28 +28 жарко 1019.1 934.7
17 18.07 В 1
{4}
н/о н/о +27.2 +11.8 38 +28 +28 жарко 1017.8 933.8
18 18.07 СВ 1
{4}
н/о н/о +27.8 +11.7 37 +29 +29 жарко 1017.0 933.2
19 18.07 В 1
{3}
н/о н/о +27.2 +11.6 38 +28 +28 жарко 1017.1 933.1
20 18.07 В 1
{3}
н/о н/о +26.3 +11.7 40 +28 +28 жарко 1017.6 933.3
21 18.07 штиль 0
{2}
н/о н/о +24.1 +12.7 49 +26 +26 жарко 1018.9 933.9
22 18.07 штиль 0
{2}
н/о н/о +22.4 +13.1 56 +25 +25 комфорт 1019.9 934.4
23 18.07 штиль 0
{2}
н/о н/о +21.1 +13.2 61 +23 +23 комфорт 1021.1 935.1
00 19.07 В 1
{3}
н/о н/о +20.9 +13.2 61 +25 +25 комфорт 1021.7 935.6
01 19.07 штиль 0
{3}
н/о н/о +20.2 +13.2 64 +22 +22 комфорт 1022.0 935.7
02 19.07 штиль 0 н/о н/о +20.2 +13.2 64 +22 +22 комфорт 1021.9 935.6
03 19.07 штиль 0 н/о н/о +19.1 +13.2 69 +20 +20 1022.0 935.4
04 19.07 штиль 0 н/о н/о +18.8 +13.1 69 +20 +20 1022.0 935.3
05 19.07 штиль 0 н/о н/о +17.2 +13.0 76 +17 +17 1022.3 935.1
06 19.07 штиль 0 н/о н/о +17.6 +12.8 73 +18 +18 1021.8 934.8
07 19.07 СВ 1
{3}
н/о н/о +17.5 +11.9 70 +19 +19 1022.1 935.0
08 19.07 СВ 1
{4}
н/о н/о +17.2 +11.1 67 +18 +18 1022.5 935.3
09 19.07 штиль 0
{3}
н/о н/о +16.3 +10.9 70 +16 +16 1023.6 936.0
10 19.07 штиль 0
{3}
н/о н/о +16.0 +10.6 70 +16 +16 1024.2 936.5
11 19.07 СВ 2
{4}
н/о н/о +17.5 +10.4 63 +18 +18 1024.6 937.3
12 19.07 СВ 2
{5}
н/о н/о +19.0 +10.1 56 +20 +20 1024.9 938.0
13 19.07 СВ 2
{5}
н/о н/о +21.2 +9.8 48 +23 +23 комфорт 1024.2 938.0
14 19.07 В 2
{5}
н/о н/о +22.6 +9.4 43 +24 +24 комфорт 1023.4 937.6
15 19.07 В 2
{5}
н/о н/о +23.7 +9.2 40 +25 +25 комфорт 1022.3 936.9
16 19.07 В 2
{4}
н/о н/о +24.9 +8.9 36 +25 +25 комфорт 1020.7 935.8
17 19.07 СВ 1
{4}
н/о н/о +25.7 +7.7 32 +26 +26 жарко 1019.5 934.9
18 19.07 В 1
{3}
н/о н/о +25.7 +7.8 32 +26 +26 жарко 1018.8 934.3
19 19.07 В 1
{3}
н/о н/о +25.4 +7.9 33 +26 +26 жарко 1018.5 933.9
20 19.07 штиль 0
{2}
н/о н/о +24.6 +8.1 35 +25 +25 комфорт 1019.2 934.3
21 19.07 штиль 0 н/о н/о +22.2 +9.4 44 +24 +24 комфорт 1020.2 934.6
22 19.07 штиль 0 н/о н/о +20.2 +9.2 49 +21 +21 комфорт 1021.2 935.0
23 19.07 штиль 0 н/о н/о +19.1 +9.0 52 +20 +20 1022.1 935.5
00 20.07 штиль 0 н/о н/о +18.1 +9.0 55 +18 +18 1023.3 936.3
01 20.07 штиль 0 н/о н/о +17.4 +8.9 57 +17 +17 1023.5 936.3
02 20.07 штиль 0 н/о н/о +16.2 +8.8 62 +16 +16 1023.9 936.3
03 20.07 штиль 0 н/о н/о +15.3 +8.8 65 +15 +15 1024.0 936.1
05 20.07 штиль 0 н/о н/о +14.2 +8.3 68 +14 +14 1023.4 935.2
06 20.07 штиль 0 н/о н/о +14.4 +7.9 65 +14 +14 1023.1 935.0
07 20.07 СВ 1
{3}
н/о н/о +14.6 +8.0 65 +16 +16 1022.9 934.9
08 20.07 СВ 2
{4}
н/о н/о +14.6 +8.2 65 +14 +14 1022.8 934.8
09 20.07 СВ 2
{4}
н/о н/о +13.3 +8.2 71 +13 +13 1023.4 935.0
10 20.07 СВ 1
{4}
н/о н/о +13.5 +8.7 73 +15 +15 1023.4 935.0
11 20.07 СВ 1
{4}
н/о н/о +15.3 +9.6 69 +16 +16 1023.8 935.9
12 20.07 СВ 2
{5}
н/о н/о +18.1 +11.1 64 +19 +19 1023.1 936.1
13 20.07 СВ 3
{5}
н/о н/о +20.5 +10.7 53 +23 +23 комфорт 1022.5 936.2
14 20.07 В 2
{5}
н/о н/о +23.1 +10.6 45 +25 +25 комфорт 1021.3 935.9
15 20.07 В 2
{5}
н/о н/о +24.0 +9.9 41 +25 +25 комфорт 1020.2 935.1
16 20.07 СВ 2
{5}
н/о н/о +25.5 +8.1 33 +26 +26 жарко 1018.8 934.2
17 20.07 С 1
{4}
н/о н/о +26.7 +8.3 31 +27 +27 жарко 1017.4 933.3
18 20.07 СВ 1
{4}
н/о н/о +26.3 +7.5 30 +26 +26 жарко 1016.9 932.7
19 20.07 В 1
{4}
н/о н/о +25.3 +7.3 32 +25 +25 комфорт 1017.1 932.6
20 20.07 штиль 0
{3}
н/о н/о +24.4 +8.0 35 +25 +25 комфорт 1017.6 932.8
21 20.07 штиль 0
{3}
н/о н/о +22.2 +8.8 42 +24 +24 комфорт 1018.3 932.9
22 20.07 штиль 0
{2}
н/о н/о +20.5 +9.2 48 +22 +22 комфорт 1019.2 933.2
23 20.07 штиль 0
{2}
н/о н/о +19.2 +9.5 53 +20 +20 1020.4 933.9
00 21.07 штиль 0 н/о н/о +18.3 +9.6 57 +19 +19 1021.1 934.3
01 21.07 штиль 0 н/о н/о +17.6 +9.6 59 +18 +18 1021.8 934.8
02 21.07 штиль 0 н/о н/о +16.7 +9.6 63 +17 +17 1021.9 934.6
03 21.07 штиль 0
{1}
н/о н/о +16.1 +9.6 65 +16 +16 1021.9 934.4
04 21.07 штиль 0 н/о н/о +15.5 +9.4 67 +15 +15 1021.7 934.1
05 21.07 штиль 0 н/о н/о +12.5 +8.6 77 +12 +12 1022.4 933.8
06 21.07 штиль 0 н/о н/о +11.4 +9.2 86 +11 +11 1022.6 933.7
07 21.07 штиль 0 н/о н/о +12.8 +9.6 81 +12 +12 1021.6 933.2
08 21.07 штиль 0 н/о н/о +10.1 +7.8 86 +9 +9 1022.4 933.1
09 21.07 штиль 0 н/о н/о +12.1 +9.5 84 +12 +12 1022.3 933.6
10 21.07 штиль 0 н/о н/о +13.6 +8.2 70 +13 +13 1022.7 934.4
11 21.07 штиль 0
{2}
н/о н/о +15.5 +8.8 64 +15 +15 1022.7 935.0
12 21.07 СВ 1
{3}
н/о н/о +18.1 +10.3 60 +20 +20 1022.8 935.8
13 21.07 В 1
{4}
н/о н/о +21.0 +11.6 55 +24 +24 комфорт 1021.9 935.8
14 21.07 СВ 2
{4}
н/о н/о +22.8 +11.8 50 +25 +25 комфорт 1020.8 935.3
15 21.07 СВ 2
{5}
н/о н/о +25.0 +11.5 43 +26 +26 жарко 1019.1 934.4
16 21.07 СВ 2
{5}
н/о н/о +25.2 +10.4 39 +26 +26 жарко 1018.3 933.7
17 21.07 СВ 2
{5}
н/о н/о +25.4 +10.5 39 +26 +26 жарко 1017.4 932.9
18 21.07 С 2
{4}
н/о н/о +26.7 +10.4 36 +27 +27 жарко 1016.6 932.5
19 21.07 СВ 1
{4}
н/о н/о +25.6 +9.7 37 +26 +26 жарко 1017.0 932.6
20 21.07 штиль 0
{4}
н/о н/о +25.1 +10.5 40 +26 +26 жарко 1017.3 932.7
21 21.07 штиль 0
{2}
н/о н/о +23.4 +10.5 44 +25 +25 комфорт 1018.1 933.0
22 21.07 штиль 0 н/о н/о +21.9 +10.6 49 +24 +24 комфорт 1018.9 933.3
23 21.07 штиль 0 н/о н/о +20.5 +11.0 54 +22 +22 комфорт 1019.8 933.8
00 22.07 штиль 0 н/о н/о +20.0 +11.3 57 +21 +21 комфорт 1020.8 934.5
01 22.07 штиль 0 н/о н/о +17.7 +10.9 64 +18 +18 1021.9 934.9
02 22.07 штиль 0 н/о н/о +15.8 +11.0 73 +16 +16 1022.9 935.3
03 22.07 штиль 0 н/о н/о +15.9 +11.2 74 +16 +16 1021.9 934.4
04 22.07 штиль 0 н/о н/о +14.2 +11.0 81 +14 +14 1022.0 934.0
05 22.07 штиль 0 н/о н/о +13.6 +11.0 84 +13 +13 1022.0 933.8
06 22.07 штиль 0 н/о н/о +14.1 +10.3 78 +14 +14 1021.9 933.8
07 22.07 штиль 0 н/о н/о +13.8 +11.4 85 +13 +13 1021.6 933.5
08 22.07 С 1
{2}
н/о н/о +16.0 +11.5 75 +17 +17 1021.6 934.1
09 22.07 штиль 0
{3}
н/о н/о +16.1 +11.2 73 +16 +16 1022.0 934.5
10 22.07 СВ 1
{4}
н/о н/о +16.1 +10.7 70 +18 +18 1022.9 935.3
11 22.07 СВ 1
{3}
н/о н/о +16.5 +10.8 69 +18 +18 1023.5 936.0
12 22.07 СВ 2
{4}
н/о н/о +18.9 +11.3 61 +20 +20 1023.2 936.4
13 22.07 СВ 2
{4}
н/о н/о +21.2 +10.8 51 +23 +23 комфорт 1022.7 936.6
14 22.07 СВ 2
{4}
н/о н/о +23.3 +10.2 43 +25 +25 комфорт 1021.3 935.9
15 22.07 СВ 2
{5}
н/о н/о +24.6 +8.7 36 +25 +25 комфорт 1019.9 935.0
16 22.07 СВ 2
{5}
н/о н/о +25.7 +9.0 35 +26 +26 жарко 1018.8 934.3
17 22.07 В 2
{4}
н/о н/о +26.4 +8.3 32 +26 +26 жарко 1017.9 933.6
18 22.07 СВ 1
{4}
н/о н/о +26.9 +8.3 31 +27 +27 жарко 1017.1 933.0
19 22.07 СВ 1
{3}
н/о н/о +26.6 +8.1 31 +27 +27 жарко 1016.9 932.8
20 22.07 В 1
{3}
н/о н/о +25.3 +9.4 37 +26 +26 жарко 1017.5 933.0
21 22.07 штиль 0
{3}
н/о н/о +23.1 +10.4 45 +25 +25 комфорт 1018.5 933.3
22 22.07 штиль 0 н/о н/о +21.1 +10.8 52 +23 +23 комфорт 1019.7 933.8
23 22.07 штиль 0 н/о н/о +20.0 +10.9 56 +21 +21 комфорт 1020.7 934.4
00 23.07 штиль 0 н/о н/о +18.9 +10.8 59 +20 +20 1021.5 934.9
01 23.07 штиль 0 н/о н/о +16.7 +10.8 68 +17 +17 1022.7 935.3
02 23.07 штиль 0 н/о н/о +15.1 +11.2 78 +15 +15 1023.2 935.3
03 23.07 штиль 0 н/о н/о +15.4 +11.0 75 +15 +15 1022.9 935.1
04 23.07 штиль 0 н/о н/о +14.0 +10.2 78 +14 +14 1023.1 934.9
05 23.07 штиль 0 н/о н/о +15.0 +10.9 76 +15 +15 1022.1 934.3
06 23.07 штиль 0 н/о н/о +15.1 +10.7 75 +15 +15 1021.4 933.7
07 23.07 штиль 0 н/о н/о +14.7 +10.4 75 +14 +14 1021.7 933.8
08 23.07 штиль 0 н/о н/о +13.4 +10.4 82 +13 +13 1022.4 934.1

 

Местоположение метеостанции Пирис-ду-Риу (Гояс, Бразилия): широта -17.30 долгота -48.28 высота над уровнем моря 754 м.

В архиве по умолчанию представлена погода в Пирис-ду-Риу за последнюю неделю. Архивные данные за месяц целиком и за предыдущие месяцы, начиная с января 2011 года, Вы можете получить, выбрав интересующий диапазон дат из раскрывающегося списка и нажав кнопку "Ввод!".


*Определитесь, кто Вы:
робот инопланетянин человек

Внимание! Время в таблицах - всемирное. Для получения местного времени необходимо прибавить поправку, которая равна -3 ч.

Смотрите также архив погоды в соседних городах и на ближайших метеорологических станциях:

Погода в Силвании (Гояс, Бразилия) (78 км)
Погода в Кристалине (Гояс, Бразилия) (91 км)
Погода в Морриньюсе (Гояс, Бразилия) (99 км)
Погода в Каталане (Гояс, Бразилия) (102 км)
Погода в Каталане (Гояс, Бразилия) (104 км)
Погода в Гуарда-Море (Минас-Жерайс, Бразилия) (118 км)
Погода в Лузиании (Гояс, Бразилия) (119 км)
Погода в Гоянии (Гояс, Бразилия) (123 км)
Погода в Гоянии (Гояс, Бразилия) (125 км)
Погода в Паракату (Минас-Жерайс, Бразилия) (151 км)

Пояснения к столбцам:

Ветер - указаны скорость ветра в м/с - средняя за 10 мин, порывы в срок и между сроками (в фигурных скобках) и направление, откуда дует ветер: С - северный, СВ - северо-восточный, В - восточный, ЮВ - юго-восточный, Ю - южный, ЮЗ - юго-западный, З - западный, СЗ - северо-западный.
Видимость - горизонтальная дальность видимости в метрах или километрах. При видимости от 1 до 10 км при отсутствии осадков обычно наблюдается дымка, при ухудшении видимости до 1 км и менее - туман. В сухую погоду видимость может ухудшаться дымом, пылью или мглою.
Явления - указаны атмосферные явления, наблюдавшиеся в срок или в последний час перед сроком; фигурными скобками обозначены явления, наблюдавшиеся между сроками (за 1-3 часа до срока); квадратными скобками обозначены град или гололедные отложения с указанием их диаметра в мм.
Облачность - указаны через наклонную черту общая и нижняя облачность в баллах и высота нижней границы облаков в метрах; квадратными скобками обозначены формы облаков: Ci - перистые, Cs - перисто-слоистые, Cc - перисто-кучевые, Ac - высококучевые, As - высокослоистые, Sc - слоисто-кучевые, Ns - слоисто-дождевые, Cu - кучевые, Cb - кучево-дождевые. Подробнее классификацию облаков см. в Атласе облаков (PDF).
T - Температура воздуха - температура, измеренная на высоте 2 м над землей.
Td - Температура точки росы - температура, при понижении до которой содержащийся в воздухе водяной пар достигнет насыщения.
f - Относительная влажность воздуха - влажноcть воздуха, измеренная на высоте 2 м над землей.
Te - Эффективная температура - температура, которую ощущает одетый по сезону человек в тени. Характеристика душности погоды. При расчете учитывается влияние влажности воздуха и скорости ветра на теплоощущения человека.
Tes - Эффективная температура на солнце - температура, которую ощущает человек, с поправкой на солнечный нагрев. Характеристика знойности погоды. Зависит от высоты солнца над горизонтом, облачности и скорости ветра. Ночью, в пасмурную погоду, а также при ветре 12 м/с и более поправка равна нулю.
P - Атмосферное давление - приведенное к уровню моря атмосферное давление.
Po - Атмосферное давление - измеренное на уровне метеостанции атмосферное давление.
Tmin - Минимальная температура - минимум температуры воздуха на высоте 2 м над землей.
Tmax - Максимальная температура - максимум температуры воздуха на высоте 2 м над землей.
R - Количество осадков - Количество выпавших осадков за период времени, мм. При наведении курсора мыши на число - период времени, за который выпало указанное количество осадков.
R24 - Количество осадков - Количество выпавших осадков за 24 часа, мм.
S - Снежный покров - Высота снежного покрова, см. При наведении курсора мыши на число - состояние снежного покрова и степень покрытия местности в баллах.